Volver al catálogo

SL-12 DEB

LostHEO
NORAD 29431·DEBRIS·🇷🇺 Russia

Lanzado May 31, 1989 desde Baikonur Cosmodrome

Loading…

Próximos Pases (próximas 24 horas)

TLE

ObsoletoSource: Space-Track

Época: Nov 24, 2006, 04:19 UTC

1 29431U 89039CF  06328.17988122  .00512811  00000-0  11145+0 0  9994
2 29431  67.1510 239.9867 5679936  48.5245 348.0129  4.51873864  5488

Sigue SL-12 DEB en tiempo real con AllMySat

Download on the App Store